Terminal Aerodrome Forecast
Issued by NWS

Home | Current Version | Previous Version | Graphics & Text | Print | Product List | Glossary On
Versions: 1 2 3 4 5 6 7 8 9 10 11 12 13 14 15 16 17 18 19 20 21
500
FTUS43 KBIS 160341 AAA
TAFJMS
TAF AMD
KJMS 160341Z 1604/1624 04007KT P6SM SCT008 OVC011
     FM160500 08005KT P6SM OVC008
     FM160800 12009KT P6SM OVC011
     FM161500 14017G25KT P6SM SCT010 SCT140
     FM161700 14019G28KT P6SM BKN120 BKN200=

USA.gov is the U.S. government's official web portal to all federal, state and local government web resources and services.